Погода в Змеиногорске

Погода в Змеиногорске : погода сейчас, прогноз погоды и архив. Всё, что Вы хотите узнать о погоде в Змеиногорске!

Хотите узнать прогноз погоды в Змеиногорске? Тогда Вам сюда: Погода в Змеиногорске

Поиск расширенной информации на нашем сайте:

Другие новости

Новости СМИ2

Главная страница сайта

Новости сайта

03.07.2017

Напоминаем, что на нашем специализированном сайте Метеоцентр.Азия вы можете получить высокодетализированные автоматические прогнозы погоды по пунктам России, СНГ и мира в авиационном формате (включающие направление и скорость ветра, видимость, явления погоды, количество и форму облачности, нижнюю и верхнюю границу облачности).


Погода в Змеиногорске - сегодня

Время (UTC), дата Ветер
(°,м/с) 
Видим.   Явления Облачность Т
(°С)
Тd
(°С)
f(%) Тe
(°С)
Pmin
(гПа)
dP
(гПа)
Po
(мм)
O2
(г/м3)
Тmin Tmax R s Состояние
почвы
03 20.07.17 170 (Ю) 20000 м    10/0 средняя, верхняя 
[Ac lent|Cs]
+18.7 +12.6 68 +24  1012.9  0.4  729  272           
06 20.07.17 190 (Ю) 20000 м    10/8 600 м верхняя 
[Cu med, cong|Ci]
+22.2 +12.7 55 +28  1012.3  -0.1  729  269           
09 20.07.17 120 (ЮВ) 20000 м  слаб. ливневой дождь, в посл. час гроза  10/8 600 м кучево-дожд., верхняя 
[Cb cap|Ci]
+18.3 +14.8 80 +29  1012.6  -0.2  729  272           
12 20.07.17 160 (Ю) 20000 м  гроза без осадков{ливн. осадки}  10/5 600 м кучево-дожд., верхняя 
[Cb cap|Ci]
+21.8 +13.8 60 +29  1011.3  -0.8  728  269    +23.1     
15 20.07.17 130 (ЮВ) 20000 м  {гроза, ливн. осадки}  10/8 600 м кучево-дожд., верхняя 
[Cb cap|Ci]
+16.7 +13.6 82 +25  1012.6  0.6  729  274           
18 20.07.17 060 (СВ) 20000 м  {гроза, ливн. осадки}  1/1 600 м 
[Sc]
+14.4 +12.3 87 +21  1013.1  0.1  729  276           
21 20.07.17 040 (СВ) 20000 м    1/1 600 м 
[Sc]
+11.4 +10.1 92 +15  1013.9  0.3  729  280           
00 21.07.17 050 (СВ) 20000 м    10/1 600 м верхняя 
[Sc|Cs]
+11.4 +10.3 93 +15  1014.1  0.2  729  280  +10.2    0.1    влажная 
03 21.07.17 210 (ЮЗ) 20000 м    10/0 верхняя 
[Cs]
+20.4 +12.8 62 +26  1013.4  0.6  730  271           
06 21.07.17 280 (З) 20000 м    10/4 600 м верхняя 
[Cu med, cong|Ci]
+23.6 +12.9 51 +30  1012.4  -0.5  729  268           
09 21.07.17 290 (З) 20000 м    10/8 600 м верхняя 
[Cu med, cong|Ci]
+25.2 +11.6 43 +29  1011.2  -0.9  728  267           
12 21.07.17 250 (З) 20000 м    10/4 600 м верхняя 
[Cu med, cong|Cs]
+25.6 +9.5 36 +27  1010.8  -0.5  728  267    +26.5       
15 21.07.17 тихо ()   20000 м  в посл. час гроза{ливн. осадки}  10/8 600 м верхняя 
[Sc|Ci]
+19.1 +13.1 68 +25  1012.4  0.8  729  272           
18 21.07.17 тихо ()   20000 м  {гроза, ливн. осадки}  10/3 600 м верхняя 
[Sc|Cs]
+13.7 +11.7 88 +18  1012.6  -0.5  728  277           
21 21.07.17 тихо ()   20000 м    10/0 верхняя 
[Cs]
+11.8 +10.5 92 +14  1012  -0.9  728  279           
00 22.07.17 тихо ()   20000 м    10/0 средняя, верхняя 
[Ac As|Cs]
+11.3 +10.1 92 +13  1012.3  0.3  728  280  +10.5    0.0    влажная 
03 22.07.17 140 (ЮВ) 20000 м    10/4 600 м средняя, верхняя 
[Sc|Ac As|Ci fib]
+20.7 +13.2 62 +27  1011.2  0.3  728  270           
06 22.07.17 240 (ЮЗ) 20000 м    10/10 600 м 
[Sc]
+22.1 +13.8 59 +30  1011.5  0.4  728  269           
09 22.07.17 010 (С) 20000 м  {ливн. осадки}  10/8 600 м кучево-дожд., верхняя 
[Cb cap|Ci]
+22.5 +15.8 66 +33  1010.8  -0.5  728  268           
12 22.07.17 290 (З) 20000 м  {ливн. осадки}  10/8 600 м кучево-дожд., средняя, верхняя 
[Cb cap|Ac As|Ci fib]
+22.4 +15.3 64 +32  1010.8  -0.1  728  268    +23.7  0.3     
15 22.07.17 тихо ()   20000 м    10/8 600 м верхняя 
[Sc|Ci]
+18.3 +14.7 80 +27  1011.7  0.3  728  272           
18 22.07.17 240 (ЮЗ) 10 км  слаб. ливневой дождь, в посл. час гроза  10/10 600 м кучево-дожд. 
[Cb cap]
+16.1 +14.4 90 +25  1011.8  -0.2  728  274           
21 22.07.17 020 (С) 4000 м  дымка{ливн. осадки}  10/6 600 м верхняя 
[Sc|Cs]
+12.9 +11.7 92 +18  1011.9  -0.4  728  278           
00 23.07.17 030 (СВ) 0500 м  туман{ливн. осадки}  10/6 300 м верхняя 
[Sc|Cs]
+14.1 +13 93 +21  1012.2  0.5  728  276  +12.4    0.4    влажная 
03 23.07.17 360 (С) 20000 м  {туман}  10/10 200 м 
[St]
+17.3 +14 81 +27  1012.7  0.9  729  273           
Время (UTC), дата Ветер
(°,м/с) 
Видим.   Явления Облачность Т
(°С)
Тd
(°С)
f(%) Тe
(°С)
Pmin
(гПа)
dP
(гПа)
Po
(мм)
O2
(г/м3)
Тmin Tmax R s Состояние
почвы

Для получения пояснительной информации подведите курсор к названию столбца.

ПОГОДА в Змеиногорске - архив

Всё, что Вы хотите узнать о погоде в Змеиногорске - удобно и подробно!

Выберите нужную дату (начиная с 1 января 2015* года) и нажмите кнопку "Найти".
Будут отображены архивные сводки погоды по пункту Змеиногорск, начиная с указанной даты.


Отображать данные в формате CSV (для использования в таблицах Excel)


Внимание! Наш архив погоды предназначен исключительно для личного некоммерческого использования в познавательных целях. Если Вам необходимы официальные справки о состоянии погоды (для производственных, юридических, коммерческих и т.п. целей), обращайтесь в органы Росгидромета.

*Примечание: данная дата относится к архиву по метеостанциям СССР (Россия, СНГ, Балтия).
Архив по метеостанциям Зарубежной Европы и Азии (кроме Китая) хранится 10 дней, по другим регионам земного шара (Китай, Африка, Америка, Австралия, Океания) - 1 день.

Змеиногорск - район местоположения метеостанции


Название, широта, долгота, высота метеостанции:
Змеиногорск 51.2°ш. 82.2°д. 355 м над ур. моря [Российская Федерация]

Дополнительная информация

В oтличие oт бoльшинства пoгoдных сайтoв мы публикуем пoдрoбную метеoинфoрмацию в детальнoм прoфессиoнальнoм фoрмате.

Характеристики температуры и влажнoсти вoздуха измеряются на высoте 2 м в тени вдали oт зданий и деревьев.
Скoрoсть ветра измеряется на высoте 10 м (на урoвне рoста челoвека скoрoсть ветра ниже в 1.5-2 раза). Если метеoстанция нахoдится в гoрoде или в лесу, тo скoрoсть ветра занижена на 2-4 м/с пo сравнению с oткрытым местoм. Скoрoсть ветра над акватoриями крупных рек и oзёр, а также на вершинах хoлмoв на 2-5 м/с выше, чем в oбычных услoвиях.
Атмoсфернoе давление в разных тoчках местнoсти мoжет значительнo oтличаться oт давления на метеoстанции, в зависимoсти oт услoвий рельефа (при пoдъёме на 10 м давление пoнижается примернo на 1 мм рт.ст.).